Flag for Macedonia, Republic of Weather past 2 weeks in Skopje, Macedonia, Republic of

Now
54 °F

Clear.


Feels Like: 52 °F
Forecast: 42 / 55 °F
Wind: 6 mph from Southeast

Location: Skopje-Petrovec

Current Time: Mar 31, 2015 at 8:55:49 PM

Latest Report: Mar 31, 2015 at 8:00 PM


Visibility: 10 mi

Pressure: 29.77 "Hg

Humidity: 54%

Dew point: 37 °F

Location of SkopjeLocation

Historic Weather in Skopje — Graph

°F

Skopje temperature yesterday

Maximum temperature yesterday: 54 °F (at 12:00 PM)
Minimum temperature yesterday: 30 °F (at 6:30 AM)
Average temperature yesterday: 44 °F

Past Weeks' High & Low Weather Summary

 TemperatureHumidityPressure
High64 °F (Mar 31, 4:00 PM)100% (Mar 19, 3:30 AM)30.48 "Hg (Mar 19, 3:30 AM)
Low19 °F (Mar 21, 6:00 AM)12% (Mar 21, 3:00 PM)29.59 "Hg (Mar 27, 4:00 PM)
Average46 °F73%30.04 "Hg
* Reported Mar 16 7:00 PM — Mar 31 8:00 PM, Skopje, Weather by CustomWeather, © 2015

Note: Actual official high and low records may vary slightly from our data, if they occured in-between our weather recording intervals... More about our weather records

Advertising

Skopje weather history for previous 24 hours

 ConditionsComfort  
Time TempWeatherWind HumidityBarometerVisibility
8:00 PM
Tue, Mar 31
54 °FClear.6 mph54%29.77 "Hg10 mi
7:30 PM55 °FPassing clouds.6 mph51%29.77 "HgN/A
7:00 PM59 °FSunny.8 mph45%29.77 "Hg10 mi
6:30 PM63 °FSunny.12 mph37%29.74 "Hg10 mi
6:00 PM63 °FSunny.7 mph37%29.77 "Hg10 mi
5:30 PM64 °FSunny.5 mph32%29.77 "Hg10 mi
5:00 PM63 °FSunny.3 mph34%29.77 "Hg10 mi
4:30 PM64 °FSunny.3 mph32%29.80 "Hg10 mi
4:00 PM64 °FSunny.2 mph32%29.80 "Hg10 mi
3:30 PM63 °FSunny.5 mph32%29.83 "Hg10 mi
3:00 PM63 °FSunny.7 mph34%29.83 "Hg10 mi
2:30 PM63 °FSunny.3 mph32%29.86 "Hg10 mi
2:00 PM63 °FSunny.3 mph32%29.86 "Hg10 mi
1:30 PM61 °FSunny.2 mph31%29.86 "Hg10 mi
1:00 PM59 °FPassing clouds.5 mph34%29.89 "HgN/A
12:30 PM59 °FPassing clouds.6 mph34%29.92 "HgN/A
12:00 PM59 °FSunny.2 mph34%29.92 "Hg10 mi
11:30 AM57 °FSunny.3 mph36%29.95 "Hg10 mi
11:00 AM57 °FSunny.3 mph39%29.95 "Hg10 mi
10:30 AM55 °FSunny.3 mph41%29.95 "Hg10 mi
10:00 AM54 °FSunny.2 mph51%29.95 "Hg10 mi
9:30 AM54 °FSunny.3 mph47%29.95 "Hg10 mi
9:00 AM52 °FPassing clouds.2 mph54%29.95 "HgN/A
8:30 AM50 °FPassing clouds.2 mph62%29.95 "HgN/A
8:00 AM48 °FPartly sunny.3 mph62%29.95 "HgN/A
7:30 AM48 °FPartly sunny.3 mph62%29.95 "HgN/A
7:00 AM46 °FPassing clouds.3 mph71%29.92 "HgN/A
6:30 AM46 °FPassing clouds.5 mph62%29.92 "HgN/A
6:00 AM46 °FPassing clouds.6 mph71%29.89 "HgN/A
5:30 AM46 °FPassing clouds.8 mph71%29.89 "HgN/A
5:00 AM48 °FPassing clouds.9 mph62%29.86 "HgN/A
4:30 AM48 °FPassing clouds.12 mph66%29.86 "HgN/A
4:00 AM46 °FPassing clouds.3 mph93%29.86 "Hg5 mi
3:30 AM45 °FPassing clouds.2 mph93%29.83 "Hg4 mi
3:00 AM45 °FPassing clouds.No wind93%29.80 "Hg4 mi
2:30 AM45 °FPassing clouds.No wind93%29.80 "Hg4 mi
2:00 AM45 °FPassing clouds.No wind93%29.80 "Hg4 mi
1:30 AM45 °FPassing clouds.2 mph93%29.77 "Hg4 mi
1:00 AM45 °FPassing clouds.No wind93%29.77 "Hg5 mi
12:30 AM45 °FPassing clouds.2 mph93%29.77 "HgN/A
12:00 AM46 °FPassing clouds.2 mph93%29.77 "HgN/A
11:30 PM
Mon, Mar 30
46 °FPartly cloudy.2 mph93%29.77 "HgN/A
11:00 PM46 °FMostly cloudy.2 mph93%29.77 "HgN/A
10:30 PM46 °FPartly cloudy.2 mph93%29.74 "HgN/A
10:00 PM46 °FPartly cloudy.No wind93%29.74 "HgN/A
9:30 PM46 °FPartly cloudy.No wind93%29.74 "HgN/A
9:00 PM46 °FPartly cloudy.2 mph93%29.74 "HgN/A
8:30 PM46 °FMostly cloudy.No wind93%29.74 "HgN/A
8:00 PM48 °FMostly cloudy.2 mph87%29.74 "HgN/A
Weather by CustomWeather, © 2015

See weather overviewHow to use our weather pages